PWSweather.com
Personal Weather Stations
Station Observations
WARREN
Narre Warren , MelbourneAU

Narre Warren MelbourneAU

Lat: -38.0314269, Lon: 145.3160851

Elevation: 24

Station Type: Digiteck

http://www.aussiedownunder.net/

High Low Average
Temperature 78.6°F25.9°F 57.6°F14.2°F 67.3°F19.6°F
Dew Point 69.0°F20.6°F 41.0°F5.0°F 62.1°F16.7°F
Winds 3.8 mph -6.1 mph - Calm Calm 0.9 mph 1.4 mph
Wind Gusts 11.4 mph18.3 mph -- 3.8 mph6.1 mph
Humidity 100% 54% 84%
Pressure 30.07 in1018.30 in 29.48 in998.30 in -
Precipitation 0.28 in7.10 in - -
Hour Temp Dew Point Humidity Winds Wind Gusts Pressure Precip Precip Rate Daily Precip Total
12:00 AM 60.8°F16.0°C 59.1°F15.1°C 94% Calm Calm 1.6 mph2.6 kmh 29.48 in998.3 mb 0.00 in0.0 mm 0.00 in0.0 mm 0.00 in0.0 mm
12:15 AM 60.8°F16.0°C 59.1°F15.1°C 94% Calm Calm 1.6 mph2.6 kmh 29.50 in999.0 mb 0.00 in0.0 mm 0.00 in0.0 mm 0.00 in0.0 mm
12:30 AM 60.6°F15.9°C 59.2°F15.1°C 95% Calm Calm 0.7 mph1.1 kmh 29.50 in999.0 mb 0.00 in0.0 mm 0.00 in0.0 mm 0.00 in0.0 mm
12:45 AM 60.4°F15.8°C 59.0°F15.0°C 95% Calm Calm 1.6 mph2.6 kmh 29.50 in999.0 mb 0.00 in0.0 mm 0.00 in0.0 mm 0.00 in0.0 mm
01:00 AM 60.3°F15.7°C 58.8°F14.9°C 95% Calm Calm 0.7 mph1.1 kmh 29.51 in999.3 mb 0.00 in0.0 mm 0.00 in0.0 mm 0.00 in0.0 mm
01:15 AM 59.7°F15.4°C 58.3°F14.6°C 95% Calm Calm -- 29.52 in999.7 mb 0.00 in0.0 mm 0.00 in0.0 mm 0.00 in0.0 mm
01:30 AM 59.7°F15.4°C 58.6°F14.8°C 96% Calm Calm 0.7 mph1.1 kmh 29.52 in999.7 mb 0.00 in0.0 mm 0.00 in0.0 mm 0.00 in0.0 mm
01:45 AM 59.7°F15.4°C 58.6°F14.8°C 96% Calm Calm 0.7 mph1.1 kmh 29.53 in1000.0 mb 0.00 in0.0 mm 0.00 in0.0 mm 0.00 in0.0 mm
02:00 AM 59.4°F15.2°C 58.2°F14.6°C 96% Calm Calm -- 29.53 in1000.0 mb 0.00 in0.0 mm 0.00 in0.0 mm 0.00 in0.0 mm
02:15 AM 59.2°F15.1°C 58.1°F14.5°C 96% Calm Calm 0.7 mph1.1 kmh 29.53 in1000.0 mb 0.00 in0.0 mm 0.00 in0.0 mm 0.00 in0.0 mm
02:30 AM 59.0°F15.0°C 57.9°F14.4°C 96% Calm Calm 0.7 mph1.1 kmh 29.53 in1000.0 mb 0.00 in0.0 mm 0.00 in0.0 mm 0.00 in0.0 mm
02:45 AM 59.4°F15.2°C 58.2°F14.6°C 96% 0.1 mph E0.2 kmh E 1.6 mph2.6 kmh 29.53 in1000.0 mb 0.01 in0.3 mm 0.04 in1.0 mm 0.01 in0.3 mm
03:00 AM 59.4°F15.2°C 58.2°F14.6°C 96% Calm Calm 0.7 mph1.1 kmh 29.54 in1000.3 mb 0.01 in0.3 mm 0.00 in0.0 mm 0.01 in0.3 mm
03:15 AM 59.0°F15.0°C 57.9°F14.4°C 96% Calm Calm 0.7 mph1.1 kmh 29.54 in1000.3 mb 0.01 in0.3 mm 0.00 in0.0 mm 0.01 in0.3 mm
03:30 AM 58.8°F14.9°C 58.0°F14.4°C 97% Calm Calm 0.7 mph1.1 kmh 29.55 in1000.7 mb 0.01 in0.3 mm 0.00 in0.0 mm 0.01 in0.3 mm
03:45 AM 58.8°F14.9°C 58.0°F14.4°C 97% Calm Calm 1.6 mph2.6 kmh 29.55 in1000.7 mb 0.00 in0.0 mm 0.00 in0.0 mm 0.01 in0.3 mm
04:00 AM 59.0°F15.0°C 58.2°F14.6°C 97% Calm Calm 1.6 mph2.6 kmh 29.55 in1000.7 mb 0.00 in0.0 mm 0.00 in0.0 mm 0.01 in0.3 mm
04:15 AM 59.2°F15.1°C 58.3°F14.6°C 97% Calm Calm 0.7 mph1.1 kmh 29.56 in1001.0 mb 0.00 in0.0 mm 0.00 in0.0 mm 0.01 in0.3 mm
04:30 AM 58.6°F14.8°C 58.7°F14.8°C 100% Calm Calm 0.7 mph1.1 kmh 29.56 in1001.0 mb 0.00 in0.0 mm 0.00 in0.0 mm 0.01 in0.3 mm
04:45 AM 58.6°F14.8°C 58.7°F14.8°C 100% Calm Calm 0.7 mph1.1 kmh 29.55 in1000.7 mb 0.00 in0.0 mm 0.00 in0.0 mm 0.01 in0.3 mm
05:00 AM 58.6°F14.8°C 58.7°F14.8°C 100% Calm Calm 1.6 mph2.6 kmh 29.56 in1001.0 mb 0.00 in0.0 mm 0.00 in0.0 mm 0.01 in0.3 mm
05:15 AM 59.2°F15.1°C 58.3°F14.6°C 97% 0.3 mph N0.5 kmh N 2.2 mph3.5 kmh 29.56 in1001.0 mb 0.00 in0.0 mm 0.00 in0.0 mm 0.01 in0.3 mm
05:30 AM 59.9°F15.5°C 59.9°F15.5°C 100% Calm Calm -- 29.55 in1000.7 mb 0.00 in0.0 mm 0.00 in0.0 mm 0.01 in0.3 mm
05:45 AM 61.2°F16.2°C 60.3°F15.7°C 97% Calm Calm 0.7 mph1.1 kmh 29.57 in1001.4 mb 0.00 in0.0 mm 0.00 in0.0 mm 0.01 in0.3 mm
06:00 AM 61.2°F16.2°C 60.3°F15.7°C 97% 0.2 mph SE0.3 kmh SE 2.2 mph3.5 kmh 29.59 in1002.0 mb 0.00 in0.0 mm 0.00 in0.0 mm 0.01 in0.3 mm
06:15 AM 61.3°F16.3°C 60.5°F15.8°C 97% 0.1 mph ESE0.2 kmh ESE 2.2 mph3.5 kmh 29.60 in1002.4 mb 0.00 in0.0 mm 0.00 in0.0 mm 0.01 in0.3 mm
06:30 AM 62.1°F16.7°C 61.2°F16.2°C 97% 0.3 mph ESE0.5 kmh ESE 3.1 mph5.0 kmh 29.61 in1002.7 mb 0.00 in0.0 mm 0.00 in0.0 mm 0.01 in0.3 mm
06:45 AM 63.0°F17.2°C 62.1°F16.7°C 97% 0.2 mph ENE0.3 kmh ENE 3.1 mph5.0 kmh 29.62 in1003.0 mb 0.00 in0.0 mm 0.00 in0.0 mm 0.01 in0.3 mm
07:00 AM 63.7°F17.6°C 62.8°F17.1°C 97% 0.3 mph NE0.5 kmh NE 2.2 mph3.5 kmh 29.61 in1002.7 mb 0.00 in0.0 mm 0.00 in0.0 mm 0.01 in0.3 mm
07:15 AM 63.9°F17.7°C 62.7°F17.1°C 96% 1.0 mph NE1.6 kmh NE 4.5 mph7.2 kmh 29.61 in1002.7 mb 0.00 in0.0 mm 0.00 in0.0 mm 0.01 in0.3 mm
07:30 AM 64.2°F17.9°C 62.8°F17.1°C 95% 0.7 mph N1.1 kmh N 5.4 mph8.7 kmh 29.62 in1003.0 mb 0.00 in0.0 mm 0.00 in0.0 mm 0.01 in0.3 mm
07:45 AM 64.8°F18.2°C 63.3°F17.4°C 95% 0.5 mph N0.8 kmh N 3.8 mph6.1 kmh 29.62 in1003.0 mb 0.00 in0.0 mm 0.00 in0.0 mm 0.01 in0.3 mm
08:00 AM 64.9°F18.3°C 62.9°F17.2°C 93% 0.3 mph E0.5 kmh E 3.1 mph5.0 kmh 29.63 in1003.4 mb 0.00 in0.0 mm 0.00 in0.0 mm 0.01 in0.3 mm
08:15 AM 65.5°F18.6°C 62.8°F17.1°C 91% 0.6 mph N1.0 kmh N 6.0 mph9.7 kmh 29.64 in1003.7 mb 0.00 in0.0 mm 0.00 in0.0 mm 0.01 in0.3 mm
08:30 AM 65.5°F18.6°C 62.2°F16.8°C 89% 1.2 mph NNE1.9 kmh NNE 5.4 mph8.7 kmh 29.65 in1004.1 mb 0.00 in0.0 mm 0.00 in0.0 mm 0.01 in0.3 mm
08:45 AM 65.7°F18.7°C 61.7°F16.5°C 87% 1.3 mph N2.1 kmh N 4.5 mph7.2 kmh 29.65 in1004.1 mb 0.00 in0.0 mm 0.00 in0.0 mm 0.01 in0.3 mm
09:00 AM 66.4°F19.1°C 61.8°F16.6°C 85% 0.7 mph WNW1.1 kmh WNW 4.5 mph7.2 kmh 29.66 in1004.4 mb 0.00 in0.0 mm 0.00 in0.0 mm 0.01 in0.3 mm
09:15 AM 67.1°F19.5°C 61.8°F16.6°C 83% 0.8 mph WNW1.3 kmh WNW 3.8 mph6.1 kmh 29.66 in1004.4 mb 0.00 in0.0 mm 0.00 in0.0 mm 0.01 in0.3 mm
09:30 AM 67.1°F19.5°C 60.7°F15.9°C 80% 0.9 mph NNE1.4 kmh NNE 4.5 mph7.2 kmh 29.66 in1004.4 mb 0.00 in0.0 mm 0.00 in0.0 mm 0.01 in0.3 mm
09:45 AM 70.7°F21.5°C 62.8°F17.1°C 76% 1.0 mph N1.6 kmh N 4.5 mph7.2 kmh 29.65 in1004.1 mb 0.00 in0.0 mm 0.00 in0.0 mm 0.01 in0.3 mm
10:00 AM 71.2°F21.8°C 62.2°F16.8°C 73% 0.9 mph WNW1.4 kmh WNW 4.5 mph7.2 kmh 29.65 in1004.1 mb 0.00 in0.0 mm 0.00 in0.0 mm 0.01 in0.3 mm
10:15 AM 70.0°F21.1°C 60.6°F15.9°C 72% 1.5 mph SW2.4 kmh SW 4.5 mph7.2 kmh 29.64 in1003.7 mb 0.00 in0.0 mm 0.00 in0.0 mm 0.01 in0.3 mm
10:30 AM 69.8°F21.0°C 61.2°F16.2°C 74% 1.4 mph WSW2.3 kmh WSW 6.9 mph11.1 kmh 29.63 in1003.4 mb 0.00 in0.0 mm 0.00 in0.0 mm 0.01 in0.3 mm
10:45 AM 71.1°F21.7°C 62.0°F16.7°C 73% 1.8 mph SW2.9 kmh SW 5.4 mph8.7 kmh 29.64 in1003.7 mb 0.00 in0.0 mm 0.00 in0.0 mm 0.01 in0.3 mm
11:00 AM 73.9°F23.3°C 62.7°F17.1°C 68% 1.9 mph SSW3.1 kmh SSW 4.5 mph7.2 kmh 29.64 in1003.7 mb 0.00 in0.0 mm 0.00 in0.0 mm 0.01 in0.3 mm
11:15 AM 76.3°F24.6°C 63.2°F17.3°C 64% 1.8 mph WSW2.9 kmh WSW 6.0 mph9.7 kmh 29.65 in1004.1 mb 0.00 in0.0 mm 0.00 in0.0 mm 0.01 in0.3 mm
11:30 AM 77.7°F25.4°C 63.2°F17.3°C 61% 1.7 mph W2.7 kmh W 6.0 mph9.7 kmh 29.65 in1004.1 mb 0.00 in0.0 mm 0.00 in0.0 mm 0.01 in0.3 mm
11:45 AM 74.8°F23.8°C 63.2°F17.3°C 67% 0.5 mph E0.8 kmh E 3.1 mph5.0 kmh 29.66 in1004.4 mb 0.00 in0.0 mm 0.00 in0.0 mm 0.01 in0.3 mm
12:00 PM 75.2°F24.0°C 63.1°F17.3°C 66% 1.1 mph WNW1.8 kmh WNW 4.5 mph7.2 kmh 29.66 in1004.4 mb 0.00 in0.0 mm 0.00 in0.0 mm 0.01 in0.3 mm
12:15 PM 75.2°F24.0°C 63.1°F17.3°C 66% 2.0 mph SSW3.2 kmh SSW 6.0 mph9.7 kmh 29.65 in1004.1 mb 0.00 in0.0 mm 0.00 in0.0 mm 0.01 in0.3 mm
12:30 PM 78.6°F25.9°C 63.6°F17.6°C 60% 2.5 mph NW4.0 kmh NW 7.6 mph12.2 kmh 29.65 in1004.1 mb 0.00 in0.0 mm 0.00 in0.0 mm 0.01 in0.3 mm
12:45 PM 76.5°F24.7°C 63.4°F17.4°C 64% 2.3 mph W3.7 kmh W 6.9 mph11.1 kmh 29.65 in1004.1 mb 0.00 in0.0 mm 0.00 in0.0 mm 0.01 in0.3 mm
01:00 PM 74.8°F23.8°C 63.6°F17.6°C 68% 0.9 mph W1.4 kmh W 5.4 mph8.7 kmh 29.64 in1003.7 mb 0.00 in0.0 mm 0.00 in0.0 mm 0.01 in0.3 mm
01:15 PM 76.3°F24.6°C 64.1°F17.8°C 66% 3.5 mph WSW5.6 kmh WSW 6.9 mph11.1 kmh 29.63 in1003.4 mb 0.00 in0.0 mm 0.00 in0.0 mm 0.01 in0.3 mm
01:30 PM 74.3°F23.5°C 64.3°F17.9°C 71% 2.5 mph SW4.0 kmh SW 7.6 mph12.2 kmh 29.63 in1003.4 mb 0.00 in0.0 mm 0.00 in0.0 mm 0.01 in0.3 mm
01:45 PM 73.2°F22.9°C 64.1°F17.8°C 73% 2.9 mph WSW4.7 kmh WSW 6.0 mph9.7 kmh 29.63 in1003.4 mb 0.00 in0.0 mm 0.00 in0.0 mm 0.01 in0.3 mm
02:00 PM 72.1°F22.3°C 63.0°F17.2°C 73% 2.8 mph WSW4.5 kmh WSW 6.0 mph9.7 kmh 29.63 in1003.4 mb 0.00 in0.0 mm 0.00 in0.0 mm 0.01 in0.3 mm
02:15 PM 71.6°F22.0°C 62.9°F17.2°C 74% 2.8 mph SW4.5 kmh SW 8.3 mph13.4 kmh 29.64 in1003.7 mb 0.00 in0.0 mm 0.00 in0.0 mm 0.01 in0.3 mm
02:30 PM 72.1°F22.3°C 64.6°F18.1°C 77% 1.3 mph SW2.1 kmh SW 6.0 mph9.7 kmh 29.63 in1003.4 mb 0.00 in0.0 mm 0.00 in0.0 mm 0.01 in0.3 mm
02:39 PM 57.6°F14.2°C 41.0°F5.0°C 54% 0.6 mph SW1.0 kmh SW 5.6 mph9.0 kmh 30.07 in1018.3 mb 0.00 in0.0 mm 0.00 in0.0 mm 0.01 in0.3 mm
02:45 PM 73.6°F23.1°C 66.3°F19.1°C 78% 1.1 mph SSE1.8 kmh SSE 4.5 mph7.2 kmh 29.74 in1007.1 mb 0.00 in0.0 mm 0.00 in0.0 mm 0.01 in0.3 mm
03:00 PM 72.7°F22.6°C 66.5°F19.2°C 81% 2.2 mph SE3.5 kmh SE 7.6 mph12.2 kmh 29.73 in1006.8 mb 0.01 in0.3 mm 0.01 in0.3 mm 0.02 in0.5 mm
03:15 PM 72.0°F22.2°C 66.6°F19.2°C 83% 1.8 mph SE2.9 kmh SE 6.0 mph9.7 kmh 29.72 in1006.4 mb 0.01 in0.3 mm 0.00 in0.0 mm 0.02 in0.5 mm
03:30 PM 72.0°F22.2°C 67.2°F19.6°C 85% 3.8 mph SSE6.1 kmh SSE 11.4 mph18.3 kmh 29.70 in1005.8 mb 0.01 in0.3 mm 0.00 in0.0 mm 0.02 in0.5 mm
03:45 PM 73.8°F23.2°C 69.0°F20.6°C 85% 2.5 mph SE4.0 kmh SE 8.3 mph13.4 kmh 29.70 in1005.8 mb 0.01 in0.3 mm 0.00 in0.0 mm 0.02 in0.5 mm
04:00 PM 74.8°F23.8°C 67.6°F19.8°C 78% 2.2 mph E3.5 kmh E 10.7 mph17.2 kmh 29.71 in1006.1 mb 0.00 in0.0 mm 0.00 in0.0 mm 0.02 in0.5 mm
04:15 PM 74.7°F23.7°C 67.0°F19.4°C 77% 2.6 mph E4.2 kmh E 9.8 mph15.8 kmh 29.72 in1006.4 mb 0.00 in0.0 mm 0.00 in0.0 mm 0.02 in0.5 mm
04:30 PM 75.7°F24.3°C 66.1°F18.9°C 72% 2.9 mph ENE4.7 kmh ENE 8.3 mph13.4 kmh 29.71 in1006.1 mb 0.00 in0.0 mm 0.00 in0.0 mm 0.02 in0.5 mm
04:45 PM 75.2°F24.0°C 65.2°F18.4°C 71% 2.8 mph ENE4.5 kmh ENE 9.8 mph15.8 kmh 29.72 in1006.4 mb 0.00 in0.0 mm 0.00 in0.0 mm 0.02 in0.5 mm
05:00 PM 75.0°F23.9°C 65.0°F18.3°C 71% 2.0 mph ESE3.2 kmh ESE 6.9 mph11.1 kmh 29.72 in1006.4 mb 0.00 in0.0 mm 0.00 in0.0 mm 0.02 in0.5 mm
05:15 PM 74.5°F23.6°C 64.9°F18.3°C 72% 3.0 mph E4.8 kmh E 10.7 mph17.2 kmh 29.72 in1006.4 mb 0.00 in0.0 mm 0.00 in0.0 mm 0.02 in0.5 mm
05:30 PM 73.9°F23.3°C 65.2°F18.4°C 74% 1.5 mph ENE2.4 kmh ENE 7.6 mph12.2 kmh 29.73 in1006.8 mb 0.00 in0.0 mm 0.00 in0.0 mm 0.02 in0.5 mm
05:45 PM 73.9°F23.3°C 65.6°F18.7°C 75% 1.8 mph E2.9 kmh E 6.9 mph11.1 kmh 29.74 in1007.1 mb 0.00 in0.0 mm 0.00 in0.0 mm 0.02 in0.5 mm
06:00 PM 73.2°F22.9°C 64.9°F18.3°C 75% 1.7 mph E2.7 kmh E 6.9 mph11.1 kmh 29.75 in1007.5 mb 0.00 in0.0 mm 0.00 in0.0 mm 0.02 in0.5 mm
06:15 PM 72.9°F22.7°C 64.5°F18.1°C 75% 1.3 mph ENE2.1 kmh ENE 6.0 mph9.7 kmh 29.76 in1007.8 mb 0.00 in0.0 mm 0.00 in0.0 mm 0.02 in0.5 mm
06:30 PM 71.6°F22.0°C 64.8°F18.2°C 79% 0.5 mph NNW0.8 kmh NNW 3.8 mph6.1 kmh 29.77 in1008.1 mb 0.00 in0.0 mm 0.00 in0.0 mm 0.02 in0.5 mm
06:45 PM 70.5°F21.4°C 64.8°F18.2°C 82% 0.7 mph NNE1.1 kmh NNE 5.4 mph8.7 kmh 29.78 in1008.5 mb 0.00 in0.0 mm 0.00 in0.0 mm 0.02 in0.5 mm
07:00 PM 69.8°F21.0°C 64.4°F18.0°C 83% 0.2 mph W0.3 kmh W 3.1 mph5.0 kmh 29.79 in1008.8 mb 0.00 in0.0 mm 0.00 in0.0 mm 0.02 in0.5 mm
07:15 PM 69.1°F20.6°C 64.1°F17.8°C 84% 0.5 mph NE0.8 kmh NE 3.8 mph6.1 kmh 29.79 in1008.8 mb 0.00 in0.0 mm 0.00 in0.0 mm 0.02 in0.5 mm
07:30 PM 68.7°F20.4°C 63.7°F17.6°C 84% 0.6 mph N1.0 kmh N 4.5 mph7.2 kmh 29.80 in1009.1 mb 0.00 in0.0 mm 0.00 in0.0 mm 0.02 in0.5 mm
07:45 PM 68.5°F20.3°C 63.2°F17.3°C 83% 0.1 mph ENE0.2 kmh ENE 1.6 mph2.6 kmh 29.80 in1009.1 mb 0.00 in0.0 mm 0.00 in0.0 mm 0.02 in0.5 mm
08:00 PM 68.0°F20.0°C 62.7°F17.1°C 83% Calm Calm 1.6 mph2.6 kmh 29.79 in1008.8 mb 0.00 in0.0 mm 0.00 in0.0 mm 0.02 in0.5 mm
08:15 PM 67.5°F19.7°C 62.5°F16.9°C 84% Calm Calm -- 29.80 in1009.1 mb 0.00 in0.0 mm 0.00 in0.0 mm 0.02 in0.5 mm
08:30 PM 67.6°F19.8°C 63.0°F17.2°C 85% Calm Calm 0.7 mph1.1 kmh 29.81 in1009.5 mb 0.00 in0.0 mm 0.00 in0.0 mm 0.02 in0.5 mm
08:45 PM 67.8°F19.9°C 63.2°F17.3°C 85% 0.1 mph NE0.2 kmh NE 1.6 mph2.6 kmh 29.82 in1009.8 mb 0.00 in0.0 mm 0.00 in0.0 mm 0.02 in0.5 mm
09:00 PM 68.0°F20.0°C 63.0°F17.2°C 84% 0.1 mph SSW0.2 kmh SSW 1.6 mph2.6 kmh 29.81 in1009.5 mb 0.00 in0.0 mm 0.00 in0.0 mm 0.02 in0.5 mm
09:15 PM 68.0°F20.0°C 63.0°F17.2°C 84% Calm Calm 0.7 mph1.1 kmh 29.81 in1009.5 mb 0.00 in0.0 mm 0.00 in0.0 mm 0.02 in0.5 mm
09:30 PM 68.0°F20.0°C 63.0°F17.2°C 84% Calm Calm 1.6 mph2.6 kmh 29.81 in1009.5 mb 0.00 in0.0 mm 0.00 in0.0 mm 0.02 in0.5 mm
09:45 PM 68.0°F20.0°C 63.0°F17.2°C 84% Calm Calm 0.7 mph1.1 kmh 29.83 in1010.2 mb 0.01 in0.3 mm 0.04 in1.0 mm 0.04 in1.0 mm
10:00 PM 67.8°F19.9°C 63.8°F17.7°C 87% Calm Calm 1.6 mph2.6 kmh 29.83 in1010.2 mb 0.01 in0.3 mm 0.00 in0.0 mm 0.04 in1.0 mm
10:15 PM 67.1°F19.5°C 63.1°F17.3°C 87% Calm Calm 1.6 mph2.6 kmh 29.83 in1010.2 mb 0.05 in1.3 mm 0.16 in4.1 mm 0.07 in1.8 mm
10:30 PM 66.6°F19.2°C 62.9°F17.2°C 88% Calm Calm 0.7 mph1.1 kmh 29.82 in1009.8 mb 0.05 in1.3 mm 0.00 in0.0 mm 0.07 in1.8 mm
10:45 PM 66.2°F19.0°C 62.9°F17.2°C 89% Calm Calm 0.7 mph1.1 kmh 29.82 in1009.8 mb 0.04 in1.0 mm 0.00 in0.0 mm 0.07 in1.8 mm
11:00 PM 66.2°F19.0°C 63.2°F17.3°C 90% 0.2 mph WSW0.3 kmh WSW 3.1 mph5.0 kmh 29.81 in1009.5 mb 0.04 in1.0 mm 0.00 in0.0 mm 0.07 in1.8 mm
11:15 PM 66.2°F19.0°C 63.5°F17.5°C 91% Calm Calm 0.7 mph1.1 kmh 29.81 in1009.5 mb 0.00 in0.0 mm 0.00 in0.0 mm 0.07 in1.8 mm
11:30 PM 66.6°F19.2°C 64.2°F17.9°C 92% Calm Calm 0.7 mph1.1 kmh 29.81 in1009.5 mb 0.00 in0.0 mm 0.00 in0.0 mm 0.07 in1.8 mm
11:45 PM 66.6°F19.2°C 64.5°F18.1°C 93% Calm Calm 1.6 mph2.6 kmh 29.80 in1009.1 mb 0.00 in0.0 mm 0.00 in0.0 mm 0.07 in1.8 mm